Tiempo cada hora Barlovo

Hoy, 25 Junio, Viernes

Tiempo Temperatura Precipitaciones Viento Presión Humedad
00:00 +19°C° 0.1 mm 2 mps 745 mmHg 91%
01:00 +19°C° 0.1 mm 2 mps 745 mmHg 92%
02:00 +19°C° 0.1 mm 2 mps 745 mmHg 92%
03:00 +20°C° 0.1 mm 2 mps 745 mmHg 92%
04:00 +21°C° 0.1 mm 1 mps 745 mmHg 92%
05:00 +22°C° 0.1 mm 1 mps 745 mmHg 92%
06:00 +24°C° 0.1 mm 2 mps 745 mmHg 84%
07:00 +26°C° 0.1 mm 2 mps 744 mmHg 77%
08:00 +28°C° 0.1 mm 2 mps 744 mmHg 69%
09:00 +30°C° 0.1 mm 2 mps 744 mmHg 60%
10:00 +31°C° 0.1 mm 1 mps 744 mmHg 52%
11:00 +33°C° 0.1 mm 1 mps 744 mmHg 43%
12:00 +34°C° 0 mm 2 mps 744 mmHg 41%
13:00 +35°C° 0 mm 2 mps 744 mmHg 38%
14:00 +36°C° 0 mm 3 mps 743 mmHg 35%
15:00 +34°C° 0.5 mm 3 mps 743 mmHg 43%
16:00 +31°C° 0.5 mm 3 mps 742 mmHg 51%
17:00 +29°C° 0.5 mm 2 mps 742 mmHg 59%
18:00 +27°C° 1.2 mm 2 mps 742 mmHg 69%
19:00 +25°C° 1.2 mm 2 mps 742 mmHg 79%
20:00 +22°C° 1.2 mm 3 mps 742 mmHg 90%
21:00 +21°C° 0.2 mm 2 mps 742 mmHg 91%
22:00 +19°C° 0.2 mm 2 mps 742 mmHg 93%
23:00 +18°C° 0.2 mm 2 mps 742 mmHg 95%

Mañana, 26 Junio, Sábado

Tiempo Temperatura Precipitaciones Viento Presión Humedad
00:00 +18°C° 0 mm 2 mps 742 mmHg 95%
01:00 +18°C° 0 mm 2 mps 742 mmHg 95%
02:00 +17°C° 0 mm 2 mps 742 mmHg 95%
03:00 +18°C° 0 mm 2 mps 742 mmHg 94%
04:00 +19°C° 0 mm 1 mps 742 mmHg 93%
05:00 +20°C° 0 mm 1 mps 742 mmHg 92%
06:00 +22°C° 0 mm 1 mps 742 mmHg 83%
07:00 +23°C° 0 mm 2 mps 742 mmHg 74%
08:00 +25°C° 0 mm 2 mps 742 mmHg 65%
09:00 +27°C° 0 mm 2 mps 742 mmHg 59%
10:00 +29°C° 0 mm 2 mps 742 mmHg 53%
11:00 +30°C° 0 mm 2 mps 742 mmHg 47%
12:00 +31°C° 0 mm 3 mps 742 mmHg 45%
13:00 +31°C° 0 mm 3 mps 742 mmHg 42%
14:00 +33°C° 0 mm 3 mps 741 mmHg 40%
15:00 +33°C° 0 mm 3 mps 741 mmHg 42%
16:00 +31°C° 0 mm 3 mps 741 mmHg 44%
17:00 +31°C° 0 mm 3 mps 741 mmHg 46%
18:00 +29°C° 0 mm 2 mps 741 mmHg 57%
19:00 +27°C° 0 mm 2 mps 741 mmHg 68%
20:00 +25°C° 0 mm 2 mps 741 mmHg 78%
21:00 +23°C° 0.1 mm 2 mps 742 mmHg 84%
22:00 +21°C° 0.1 mm 2 mps 742 mmHg 90%
23:00 +21°C° 0.1 mm 1 mps 742 mmHg 95%

Pasado mañana, 27 Junio, Domingo

Tiempo Temperatura Precipitaciones Viento Presión Humedad
00:00 +21°C° 0.1 mm 1 mps 742 mmHg 96%
01:00 +20°C° 0.1 mm 1 mps 742 mmHg 96%
02:00 +20°C° 0.1 mm 1 mps 742 mmHg 97%
03:00 +20°C° 0.4 mm 1 mps 742 mmHg 96%
04:00 +21°C° 0.4 mm 1 mps 742 mmHg 96%
05:00 +21°C° 0.4 mm 1 mps 742 mmHg 96%
06:00 +22°C° 0.4 mm 1 mps 742 mmHg 92%
07:00 +23°C° 0.4 mm 1 mps 742 mmHg 89%
08:00 +24°C° 0.4 mm 1 mps 742 mmHg 86%
09:00 +24°C° 0.7 mm 1 mps 742 mmHg 85%
10:00 +25°C° 0.7 mm 1 mps 741 mmHg 84%
11:00 +25°C° 0.7 mm 1 mps 741 mmHg 83%
12:00 +25°C° 1 mm 1 mps 741 mmHg 84%
13:00 +24°C° 1 mm 2 mps 741 mmHg 85%
14:00 +24°C° 1 mm 2 mps 741 mmHg 86%
15:00 +23°C° 0.2 mm 2 mps 741 mmHg 86%
16:00 +22°C° 0.2 mm 3 mps 741 mmHg 86%
17:00 +22°C° 0.2 mm 4 mps 741 mmHg 86%
18:00 +21°C° 0 mm 3 mps 741 mmHg 88%
19:00 +20°C° 0 mm 3 mps 741 mmHg 91%
20:00 +19°C° 0 mm 3 mps 741 mmHg 93%
21:00 +19°C° 0 mm 3 mps 741 mmHg 94%
22:00 +19°C° 0 mm 2 mps 741 mmHg 94%
23:00 +19°C° 0 mm 2 mps 741 mmHg 95%

28 Junio, Lunes

Tiempo Temperatura Precipitaciones Viento Presión Humedad
00:00 +19°C° 0 mm 2 mps 741 mmHg 95%
01:00 +19°C° 0 mm 2 mps 741 mmHg 95%
02:00 +18°C° 0 mm 2 mps 741 mmHg 95%
03:00 +18°C° 0 mm 2 mps 741 mmHg 93%
04:00 +18°C° 0 mm 2 mps 741 mmHg 92%
05:00 +18°C° 0 mm 2 mps 741 mmHg 90%
06:00 +19°C° 0 mm 3 mps 741 mmHg 86%
07:00 +19°C° 0 mm 3 mps 741 mmHg 81%
08:00 +20°C° 0 mm 3 mps 741 mmHg 77%
09:00 +21°C° 0 mm 3 mps 741 mmHg 74%
10:00 +21°C° 0 mm 3 mps 741 mmHg 72%
11:00 +22°C° 0 mm 3 mps 741 mmHg 70%
12:00 +22°C° 0.3 mm 3 mps 741 mmHg 71%
13:00 +22°C° 0.3 mm 3 mps 741 mmHg 73%
14:00 +22°C° 0.3 mm 3 mps 741 mmHg 74%
15:00 +21°C° 0.6 mm 3 mps 740 mmHg 77%
16:00 +21°C° 0.6 mm 3 mps 740 mmHg 80%
17:00 +20°C° 0.6 mm 3 mps 740 mmHg 83%
18:00 +20°C° 0.1 mm 3 mps 740 mmHg 83%
19:00 +19°C° 0.1 mm 2 mps 740 mmHg 83%
20:00 +19°C° 0.1 mm 2 mps 740 mmHg 82%
21:00 +19°C° 0.1 mm 2 mps 739 mmHg 84%
22:00 +19°C° 0.1 mm 2 mps 739 mmHg 85%
23:00 +18°C° 0.1 mm 2 mps 739 mmHg 86%

29 Junio, Martes

Tiempo Temperatura Precipitaciones Viento Presión Humedad
00:00 +18°C° 0.4 mm 3 mps 739 mmHg 88%
01:00 +18°C° 0.4 mm 3 mps 738 mmHg 89%
02:00 +17°C° 0.4 mm 3 mps 738 mmHg 90%
03:00 +17°C° 1.1 mm 3 mps 738 mmHg 92%
04:00 +17°C° 1.1 mm 3 mps 738 mmHg 95%
05:00 +17°C° 1.1 mm 3 mps 738 mmHg 97%
06:00 +17°C° 1.2 mm 4 mps 738 mmHg 96%
07:00 +15°C° 1.2 mm 4 mps 738 mmHg 96%
08:00 +15°C° 1.2 mm 4 mps 738 mmHg 95%
09:00 +15°C° 1.5 mm 4 mps 738 mmHg 95%
10:00 +15°C° 1.5 mm 5 mps 738 mmHg 95%
11:00 +15°C° 1.5 mm 5 mps 737 mmHg 95%
12:00 +15°C° 1 mm 5 mps 737 mmHg 95%
13:00 +15°C° 1 mm 5 mps 737 mmHg 96%
14:00 +15°C° 1 mm 5 mps 737 mmHg 96%
15:00 +16°C° 0.5 mm 5 mps 737 mmHg 96%
16:00 +16°C° 0.5 mm 5 mps 737 mmHg 95%
17:00 +16°C° 0.5 mm 5 mps 737 mmHg 95%
18:00 +16°C° 0.5 mm 5 mps 737 mmHg 96%
19:00 +17°C° 0.5 mm 4 mps 737 mmHg 96%
20:00 +17°C° 0.5 mm 4 mps 737 mmHg 96%
21:00 +17°C° 0.1 mm 4 mps 737 mmHg 96%
22:00 +17°C° 0.1 mm 3 mps 737 mmHg 95%
23:00 +17°C° 0.1 mm 3 mps 737 mmHg 95%

30 Junio, Miércoles

Tiempo Temperatura Precipitaciones Viento Presión Humedad
00:00 +16°C° 0 mm 3 mps 737 mmHg 95%
01:00 +16°C° 0 mm 2 mps 737 mmHg 96%
02:00 +16°C° 0 mm 2 mps 737 mmHg 96%
03:00 +16°C° 0 mm 2 mps 737 mmHg 95%
04:00 +16°C° 0 mm 2 mps 737 mmHg 94%
05:00 +16°C° 0 mm 2 mps 737 mmHg 94%
06:00 +18°C° 0 mm 2 mps 737 mmHg 84%
07:00 +19°C° 0 mm 2 mps 737 mmHg 74%
08:00 +21°C° 0 mm 3 mps 738 mmHg 64%
09:00 +24°C° 0 mm 3 mps 738 mmHg 58%
10:00 +25°C° 0 mm 3 mps 737 mmHg 51%
11:00 +27°C° 0 mm 3 mps 737 mmHg 45%
12:00 +26°C° 0.1 mm 3 mps 737 mmHg 51%
13:00 +25°C° 0.1 mm 3 mps 737 mmHg 57%
14:00 +24°C° 0.1 mm 3 mps 737 mmHg 63%
15:00 +25°C° 0.1 mm 3 mps 737 mmHg 63%
16:00 +25°C° 0.1 mm 3 mps 737 mmHg 63%
17:00 +25°C° 0.1 mm 3 mps 737 mmHg 63%
18:00 +24°C° 0.5 mm 3 mps 736 mmHg 71%
19:00 +21°C° 0.5 mm 2 mps 736 mmHg 79%
20:00 +19°C° 0.5 mm 2 mps 736 mmHg 88%
21:00 +18°C° 0.2 mm 2 mps 736 mmHg 91%
22:00 +17°C° 0.2 mm 3 mps 736 mmHg 93%
23:00 +17°C° 0.2 mm 3 mps 736 mmHg 96%
Mostrar más

Necesitamos Su Consentimiento

Meteoprog y nuestros Proveedores de Servicios pueden almacenar y acceder a sus datos personales como cookies, identificadores de dispositivo u otras tecnologías similares de su dispositivo y procesar dichos datos para personalizar contenido y anuncios, además de ofrecer funciones de redes sociales y analizar el tráfico.

  • Almacenar y/o acceder a información en su dispositivo

    Se puede almacenar o acceder a cookies, identificadores de dispositivo u otra información de su dispositivo para los fines anteriormente indicados.

  • Anuncios y contenido personalizados, medición de anuncios y contenido, percepciones del público, y desarrollo de productos

    Los anuncios y el contenido pueden personalizarse en base a su perfil. Se pueden añadir más datos para personalizar mejor los anuncios y contenidos. Se puede medir el rendimiento de los anuncios y contenidos. Se puede obtener la percepción sobre el público que ha visto los anuncios y contenidos. Dichos datos pueden usarse para desarrollar o mejorar la experiencia del usuario, sistemas y software.

Al hacer clic en ‘Estoy De Acuerdo’ usted permitirá el uso de las cookies, identificadores de dispositivo, balizas web u otras tecnologías similares indicadas. Su configuración puede cambiarse desde el navegador de su dispositivo.

Para ciertos fines, los intereses legítimos pueden ser considerados por encima del consentimiento. Puede leer más sobre ello en nuestra Política de Privacidad y Cookies.